Regional Weather Roundup
Issued by NWS

Home | Current Version | Previous Version | Text Only | Print | Product List | Glossary Off
Versions: 1 2 3 4 5 6 7 8 9 10 11 12 13 14 15 16 17 18 19 20 21 22 23 24 25 26 27 28 29 30 31 32 33 34 35 36 37 38 39 40 41 42 43 44 45 46 47 48 49 50

000
ASUS45 KBOU 241807
RWRCO

WEATHER ROUNDUP FOR COLORADO
NATIONAL WEATHER SERVICE DENVER/BOULDER CO
1100 AM MST SAT JAN 24 2015

NOTE: "FAIR" INDICATES FEW OR NO CLOUDS BELOW 12000 FEET WITH NO
SIGNIFICANT WEATHER AND/OR OBSTRUCTIONS TO VISIBILITY.

COZ001>005-013-030-031-241900-
...NORTHWEST COLORADO...

CITY           SKY/WX    TMP DP  RH WIND       PRES   REMARKS
CRAIG          CLOUDY    16   8  71 W6        30.38F WCI   7
HAYDEN         CLOUDY    12   5  73 S6        30.38S WCI   3
MEEKER         CLOUDY    17   9  70 S5        30.40S WCI  10
MOUNT WERNER   NOT AVBL
STEAMBOAT SPGS CLOUDY    12   3  67 CALM      30.38F
WALDEN         CLOUDY    28  14  54 S16G22    30.27F WCI  17
$$

COZ006>008-011-241900-
...WEST CENTRAL VALLEYS...

CITY           SKY/WX    TMP DP  RH WIND       PRES   REMARKS
GRAND JUNCTION CLOUDY    33  12  41 S12       30.43F WCI  24
MONTROSE       CLOUDY    30  11  45 SW3       30.46F
EAGLE          PTSUNNY   18  10  73 CALM      30.46F
RIFLE          CLOUDY    26  12  55 CALM      30.44F
DELTA          CLOUDY    31  15  51 E6        30.46F WCI  25
NUCLA          CLOUDY    32  12  43 W3        30.45F
$$

COZ017>023-064>068-241900-
...SOUTHWEST COLORADO...

CITY           SKY/WX    TMP DP  RH WIND       PRES   REMARKS
DURANGO        CLOUDY    29  19  66 E3        30.36S
CORTEZ         SUNNY     37  15  40 CALM      30.39S
PAGOSA SPRINGS CLOUDY    31  14  48 CALM      30.34F
TELLURIDE      CLOUDY    29   9  42 CALM      30.39S
WOLF CREEK PAS NOT AVBL
$$

COZ009-010-012-014-032>034-037-058>063-241900-
...CENTRAL COLORADO...

CITY           SKY/WX    TMP DP  RH WIND       PRES   REMARKS
ASPEN          CLOUDY    24   9  52 SW5       30.37F WCI  18
BUENA VISTA    CLOUDY    30  15  53 SE5       30.28S WCI  25
COPPER MTN     CLOUDY    25   3  39 W20G25    30.33F WCI  11
BERTHOUD PASS  FAIR      14   9  79 NW39      30.25F WCI  -9
COTTONWOOD PAS CLOUDY    36  -4  18 W5        30.29R
GUNNISON       CLOUDY     0 -26  29 CALM      30.50S
KREMMLING      CLOUDY     5  -2  72 CALM      30.44F
LEADVILLE      CLOUDY    26   7  44 N13       30.30F WCI  15
MONARCH PASS   CLOUDY    18   5  57 MISG      30.42F
SALIDA         CLOUDY    36  13  38 NW8       30.35R
SUNLIGHT       CLOUDY    28  14  54 CALM      30.39F
WILKERSON PASS CLOUDY    28  -6  22 W13G26    30.27F WCI  18
$$

COZ069>075-241900-
...SAN LUIS VALLEY/SANGRE DE CRISTO MOUNTAINS...

CITY           SKY/WX    TMP DP  RH WIND       PRES   REMARKS
ALAMOSA        CLOUDY    25  10  53 CALM      30.32F
LA VETA PASS   NOT AVBL
SAGUACHE       CLOUDY    16   7  67 SE9       30.35R WCI   4
$$

COZ035-036-038>040-241900-
...NORTHERN COLORADO FRONT RANGE...

CITY           SKY/WX    TMP DP  RH WIND       PRES   REMARKS
DENVER INTL AP CLOUDY    48  13  24 SW15      30.03F
DMNS CITY PARK   N/A     45  13  27 S5        30.04F
AURORA         PTSUNNY   48  13  23 SW10      30.06F
FRONT RANGE AP NOT AVBL
ERIE MUNI ARPT CLOUDY    45  19  35 CALM      30.03F
BOULDER MUN AP CLOUDY    52  12  20 CALM      30.03F
CENTENNIAL     CLOUDY    47  14  26 SW8       30.06F
BROOMFIELD     PTSUNNY   52   9  17 W17       30.06F
FORT COLLINS   CLOUDY    36  21  55 S3        30.03F
LONGMONT       CLOUDY    37  23  57 CALM      30.04F
$$

COZ041-046-047-076>085-087-088-241900-
...PIKES PEAK/PALMER DIVIDE AND SOUTHERN FOOTHILLS...

CITY           SKY/WX    TMP DP  RH WIND       PRES   REMARKS
COLO. SPRINGS  CLOUDY    50  11  20 W7        30.10S
A. F. ACADEMY  CLOUDY    46  10  23 VRB3      30.09F
ELLICOTT       CLOUDY   N/A N/A N/A W6        30.06F
FALCON         CLOUDY    48   8  19 NW12      30.10F
FORT CARSON    CLOUDY    46  21  36 S3        30.07F
LIMON          CLOUDY    46  20  35 W6        30.04F
MONUMENT HILL  CLOUDY    43  14  31 W5        30.09F
TRINIDAD       MOSUNNY   45  24  43 CALM      30.11F
$$

COZ042>045-048>051-090-091-241900-
...NORTHEAST COLORADO...

CITY           SKY/WX    TMP DP  RH WIND       PRES   REMARKS
GREELEY ARPT   CLOUDY    32  21  64 W6        30.01F WCI  26
AKRON          CLOUDY    39  26  59 W14       30.00F
BURLINGTON     PTSUNNY   46  31  55 W7        30.02F
WRAY           CLOUDY    48  25  40 W12       29.99F
STERLING       CLOUDY    37  32  81 SW8       30.00F
HOLYOKE        CLOUDY    46  23  39 W14       29.97F
FORT MORGAN    CLOUDY    40  25  53 W12       30.02F
$$

COZ086-089-092>099-241900-
...SOUTHEAST COLORADO...

CITY           SKY/WX    TMP DP  RH WIND       PRES   REMARKS
PUEBLO         CLOUDY    43  24  47 NW6       30.07F
LA JUNTA       MOSUNNY   47  27  45 SW12G17   30.06F
LAMAR          SUNNY     48  26  42 W14       30.05F
SPRINGFIELD      N/A     50  27  40 W8        30.07F
$$



USA.gov is the U.S. government's official web portal to all federal, state and local government web resources and services.